Location: Ellerstadt
(49.4644°N, 8.2615°E)
Time: 01:11:08
(UTC+00:00)

ISS - Pass Details

Date: 18 May 2021
Orbit: 417 x 422 km, 51.6° (Epoch: 15 June)

Event Time Altitude Azimuth Distance (km) Brightness Sun altitude
Rises 20:51:46 0° 256° (WSW) 2,361 0.4 -13.1°
Reaches altitude 10° 20:53:52 10° 258° (WSW) 1,500 -0.6 -13.3°
Maximum altitude 20:57:13 77° 344° (NNW) 436 -3.6 -13.6°
Drops below altitude 10° 21:00:37 10° 72° (ENE) 1,507 -1.1 -13.9°
Sets 21:02:43 0° 74° (ENE) 2,374 -0.1 -14.1°
